Home > Weather > Cambridge > Past weeks

Flag for United Kingdom Weather for the Past 2 Weeks in Cambridge, England, United Kingdom

Now
32 °F

Clear.


Feels Like: 26 °F
Forecast: 34 / 57 °F
Wind: 6 mph from Southwest

Location: Mildenhall Royal Air Force Base

Current Time: Apr 30, 2016 at 5:26:38 AM

Latest Report: Apr 30, 2016 at 4:58 AM


Visibility: N/A

Pressure: 30.03 "Hg

Humidity: 100%

Dew Point: 32 °F

Location of CambridgeLocation

Historic Weather in Cambridge — Graph

°F

Cambridge Temperature Yesterday

Maximum temperature yesterday: 52 °F (at 2:58 PM)
Minimum temperature yesterday: 36 °F (at 4:58 AM)
Average temperature yesterday: 44 °F

High & Low Weather Summary for the Past Weeks

 TemperatureHumidityPressure
High57 °F (Apr 21, 3:58 PM)100% (Apr 15, 3:00 AM)30.49 "Hg (Apr 15, 3:00 AM)
Low30 °F (Apr 28, 4:58 AM)37% (Apr 23, 2:58 PM)29.45 "Hg (Apr 15, 9:03 PM)
Average44 °F81%29.97 "Hg
* Reported Apr 15 3:00 AM — Apr 30 3:58 AM, Cambridge, Weather by CustomWeather, © 2016

Note: Actual official high and low records may vary slightly from our data, if they occured in-between our weather recording intervals... More about our weather records

Advertising

Cambridge Weather History for the Previous 24 Hours

Scroll right to see more
 ConditionsComfort  
Time TempWeatherWind HumidityBarometerVisibility
3:58 AM
Sat, Apr 30
34 °FClear.3 mph100%30.01 "HgN/A
2:58 AM34 °FClear.3 mph100%30.00 "HgN/A
1:58 AM33 °FClear.6 mph98%29.98 "HgN/A
12:58 AM36 °FClear.8 mph97%29.97 "HgN/A
11:58 PM
Fri, Apr 29
37 °FClear.7 mph92%29.95 "HgN/A
10:58 PM39 °FClear.8 mph84%29.93 "HgN/A
9:58 PM39 °FClear.7 mph82%29.91 "HgN/A
8:58 PM41 °FPassing clouds.8 mph78%29.89 "HgN/A
7:58 PM46 °FSunny.12 mph64%29.86 "HgN/A
6:58 PM48 °FPartly sunny.21 mph58%29.83 "HgN/A
5:58 PM50 °FScattered clouds.16 mph58%29.80 "HgN/A
5:03 PM50 °FLight rain. Partly sunny.24 mph50%29.78 "HgN/A
4:58 PM50 °FScattered clouds.21 mph45%29.78 "HgN/A
3:58 PM52 °FPassing clouds.22 mph41%29.77 "HgN/A
2:58 PM52 °FPartly sunny.23 mph47%29.76 "HgN/A
1:58 PM50 °FBroken clouds.23 mph45%29.75 "HgN/A
12:58 PM50 °FPartly sunny.15 mph48%29.75 "HgN/A
11:58 AM48 °FScattered clouds.23 mph50%29.74 "HgN/A
10:58 AM47 °FPartly sunny.20 mph58%29.74 "HgN/A
10:03 AM46 °FPartly sunny.22 mph62%29.73 "HgN/A
8:58 AM45 °FPassing clouds.22 mph72%29.74 "HgN/A
7:58 AM42 °FSunny.18 mph82%29.74 "HgN/A
6:58 AM39 °FSunny.16 mph91%29.74 "HgN/A
5:58 AM36 °FClear.10 mph99%29.74 "HgN/A
Weather by CustomWeather, © 2016

See weather overviewHow to use our weather pages